DLH512 HECA-EDDF

Flight info

Callsign DLH512
Flight time N/A
Altitude 38000
Route MENKU L617 NOZ L551 ANTAR DCT RIGRO DCT FSK/N0474F400 UL608 DISOR DCT LONTA UL608 DOLEV DCT LURID DCT ZAG DCT BEDOX DCT SIMBA DCT AKINI T161 DEBHI DEBHI1B
Aircraft A346/H-SDE2E3FGHIJ3J4J5M1RWXY/LB1D1

Departure

Time 2026-05-07 13:50
Airport Cairo International Airport (HECA)

Arrival

Time N/A
Airport Frankfurt Main Airport (EDDF)
Time Latitude Longitude Altitude Speed Heading
2026-05-07 13:09 30.10813 31.39698 383 ft 0 kts 255°
2026-05-07 13:38 30.10816 31.39714 383 ft 4 kts 255°
2026-05-07 13:38 30.10823 31.39740 383 ft 4 kts 245°
2026-05-07 13:38 30.10834 31.39758 383 ft 4 kts 211°
2026-05-07 13:38 30.10850 31.39762 383 ft 4 kts 171°
2026-05-07 13:39 30.10876 31.39755 383 ft 4 kts 162°
2026-05-07 13:39 30.10887 31.39751 383 ft 0 kts 165°
2026-05-07 13:44 30.10870 31.39756 383 ft 4 kts 165°
2026-05-07 13:44 30.10831 31.39769 383 ft 8 kts 165°
2026-05-07 13:45 30.10768 31.39789 383 ft 11 kts 165°
2026-05-07 13:45 30.10683 31.39815 383 ft 14 kts 165°
2026-05-07 13:45 30.10581 31.39847 383 ft 16 kts 167°
2026-05-07 13:45 30.10467 31.39875 382 ft 14 kts 176°
2026-05-07 13:46 30.10382 31.39823 383 ft 15 kts 229°
2026-05-07 13:46 30.10305 31.39722 383 ft 18 kts 227°
2026-05-07 13:46 30.10219 31.39616 382 ft 11 kts 225°
2026-05-07 13:46 30.10145 31.39590 382 ft 12 kts 161°
2026-05-07 13:47 30.10094 31.39630 382 ft 9 kts 141°
2026-05-07 13:47 30.10083 31.39640 382 ft 2 kts 141°
2026-05-07 13:47 30.10066 31.39656 382 ft 5 kts 141°
2026-05-07 13:47 30.10036 31.39688 382 ft 7 kts 128°
2026-05-07 13:48 30.10012 31.39748 382 ft 10 kts 103°
2026-05-07 13:48 30.10000 31.39837 381 ft 13 kts 85°
2026-05-07 13:48 30.10014 31.39882 383 ft 5 kts 64°
2026-05-07 13:48 30.10042 31.39926 381 ft 9 kts 47°
2026-05-07 13:49 30.10098 31.39998 382 ft 23 kts 49°
2026-05-07 13:49 30.10364 31.40350 384 ft 90 kts 49°
2026-05-07 13:49 30.10908 31.41074 384 ft 146 kts 49°
2026-05-07 13:49 30.11687 31.42101 406 ft 189 kts 47°
2026-05-07 13:50 30.12583 31.43297 884 ft 199 kts 47°
2026-05-07 13:50 30.13539 31.44457 1612 ft 199 kts 36°
2026-05-07 13:50 30.14760 31.45173 2356 ft 195 kts 18°
2026-05-07 13:50 30.16109 31.45393 2901 ft 203 kts 349°
2026-05-07 13:51 30.17388 31.44610 3234 ft 220 kts 317°
2026-05-07 13:51 30.18487 31.43269 3551 ft 240 kts 314°
2026-05-07 13:51 30.19669 31.41802 4018 ft 256 kts 314°
2026-05-07 13:51 30.20912 31.40260 4781 ft 260 kts 314°
2026-05-07 13:52 30.22150 31.38726 5634 ft 261 kts 314°
2026-05-07 13:52 30.23396 31.37185 6456 ft 264 kts 315°
2026-05-07 13:52 30.24642 31.35648 7292 ft 267 kts 315°
2026-05-07 13:52 30.25939 31.34048 8122 ft 270 kts 315°
2026-05-07 13:53 30.27227 31.32465 8980 ft 272 kts 314°
2026-05-07 13:53 30.28532 31.30865 9851 ft 273 kts 314°
2026-05-07 13:53 30.29853 31.29243 10568 ft 283 kts 313°
2026-05-07 13:53 30.31241 31.27534 11030 ft 300 kts 313°
2026-05-07 13:54 30.32712 31.25717 11445 ft 318 kts 312°
2026-05-07 13:54 30.33226 31.25082 11574 ft 324 kts 312°